047  
ASUS44 KMEG 262010  
RWRMEG  
MEMPHIS CWA HOURLY WEATHER ROUNDUP  
NATIONAL WEATHER SERVICE MEMPHIS TN  
300 PM CDT WED JUL 26 2017  
   
..WEST TENNESSEE
 
 
 
CITY SKY/WX TMP DP RH WIND PRES REMARKS
 
MEMPHIS INTL MOSUNNY 94 73 50 SW12 30.06F HX 103  
NWS MEMPHIS N/A 94 N/A N/A MISG N/A  
JACKSON MOSUNNY 95 76 53 W10 30.05F HX 108  
COVINGTON MOSUNNY 93 73 52 W7G14 30.05F HX 102  
SOMERVILLE N/A 95 73 49 SW8G14 30.05S HX 105  
BOLIVAR MOSUNNY 95 72 46 VRB6G15 30.05S HX 103  
LEXINGTON MOSUNNY 95 73 49 SW9G16 30.05F HX 105  
SAVANNAH MOSUNNY 95 72 46 CALM 30.04F HX 103  
UNION CITY SUNNY 93 77 59 SW8 30.03F HX 107  
PARIS SUNNY 91 77 62 W8 30.04F HX 105  
HUNTINGDON MOSUNNY 95 73 49 VRB6G13 30.04F HX 105  
 
   
..EASTERN ARKANSAS
 
 
 
CITY SKY/WX TMP DP RH WIND PRES REMARKS
 
JONESBORO SUNNY 95 74 50 S15G21 30.03F HX 105  
WEST MEMPHIS SUNNY 93 75 55 SW6 30.04F HX 104  
BATESVILLE SUNNY 97 68 38 S8 30.03F HX 101  
WALNUT RIDGE MOSUNNY 97 70 41 CALM 30.01F HX 103  
BLYTHEVILLE MOSUNNY 93 74 53 SW8G17 30.04F HX 103  
SEARCY SUNNY 94 76 55 S7 30.06F HX 106  
STUTTGART MOSUNNY 95 64 36 MISG 30.06F HX 97  
PINE BLUFF SUNNY 92 72 51 SW8 30.06F HX 99  
MONTICELLO MOSUNNY 94 71 47 VRB5 30.07F HX 101  
 
   
..NORTH MISSISSIPPI
 
 
 
CITY SKY/WX TMP DP RH WIND PRES REMARKS
 
TUPELO MOSUNNY 97 69 40 VRB5 30.06F HX 103  
OXFORD MOSUNNY 93 70 46 W9 30.08F HX 99  
BATESVILLE SUNNY 93 73 52 SW7 30.07F HX 102  
OLIVE BRANCH MOSUNNY N/A N/A N/A W6 30.06F  
TUNICA N/A 91 72 52 SW6 30.06F HX 98  
CLARKSDALE N/A 95 75 52 S7 30.06F HX 107  
CORINTH SUNNY 93 72 49 VRB3 30.05F HX 100  
GREENWOOD MOSUNNY 93 75 55 SW5 30.07F HX 104  
COLUMBUS MOSUNNY 94 78 59 CALM 30.06F HX 109  
STARKVILLE SUNNY 93 73 52 S6 30.08F HX 102  
GOLDEN TRIANGL MOSUNNY 97 72 44 CALM 30.03F HX 105  
 
   
..SOUTHEAST MISSOURI
 
 
 
CITY SKY/WX TMP DP RH WIND PRES REMARKS
 
KENNETT MOSUNNY 97 75 49 SW15 30.01F HX 109  
MALDEN MOSUNNY 95 73 49 S9 30.02F HX 105  
WEST PLAINS CLOUDY 93 68 43 W8 30.07F HX 97  
POPLAR BLUFF N/A 92 76 59 S10 30.00F HX 104  
CAPE GIRARDEAU CLOUDY 91 78 65 S10 30.00F HX 106  
 
   
..NORTHWEST ALABAMA
 
 
 
CITY SKY/WX TMP DP RH WIND PRES REMARKS
 
MUSCLE SHOALS MOSUNNY 94 71 47 N3 30.08F HX 101  
 
   
..MIDDLE TENNESSEE
 
 
 
CITY SKY/WX TMP DP RH WIND PRES REMARKS
 
NASHVILLE PTSUNNY 95 69 42 SW8 30.06F HX 100  
CLARKSVILLE CLOUDY 93 70 46 SW7 30.03F HX 99  
COLUMBIA MOSUNNY 91 73 55 SW3 30.04F HX 100  
 
   
..WESTERN KENTUCKY
 
 
 
CITY SKY/WX TMP DP RH WIND PRES REMARKS
 
PADUCAH MOSUNNY 94 74 52 SW10 30.02F HX 104  
FORT CAMPBELL MOSUNNY 94 74 51 SW9 30.03F HX 103  
 
   
..CENTRAL ARKANSAS
 
 
 
CITY SKY/WX TMP DP RH WIND PRES REMARKS
 
LITTLE ROCK MOSUNNY 94 73 50 S10 30.04F HX 103  
 
SKY/WX REPORTED AS FAIR MEANS FEW OR NO CLOUDS BELOW  
12 THOUSAND FEET.  
 
 
 
CLICK HERE TO GO TO PREVIOUS BULLETINS.

The Nexlab TN Page
The Nexlab MS Page
The Nexlab AR Page Main Text Page